Lid_Strength_Index
4 4 3 3 3 2 3 5 9 3 6 10 9 11 9 7 7 6 7 8 9 10 10 11 11 11 10 7 8 10 10 12 17 12 9 8 10 11 11 17 17 17 18 16
4 4 3 3 3 3 3 6 7 4 7 13 14 9 8 7 8 8 8 8 8 8 10 12 11 10 7 7 8 10 9 13 16 14 11 9 11 10 10 11 15 16 19 17
5 4 4 3 3 4 4 6 11 8 6 8 9 10 9 9 6 7 7 8 7 9 10 9 11 11 8 7 8 7 8 11 14 16 14 12 13 11 11 11 17 16 16 13
5 3 4 4 3 4 4 6 9 9 12 10 9 9 8 10 10 7 7 8 8 9 13 12 12 10 9 7 7 8 9 14 12 12 11 11 11 12 12 12 12 15 13 12
4 3 4 4 3 4 4 7 8 8 9 9 9 9 9 9 9 8 9 9 9 8 11 10 12 10 10 10 8 10 9 14 15 15 11 11 13 12 11 11 11 12 12 13
3 3 4 4 3 4 4 3 5 6 9 11 10 11 9 9 7 8 7 8 9 11 9 8 8 8 7 8 9 11 12 15 16 16 14 14 17 13 11 11 10 11 14 11
3 3 4 4 4 4 2 3 5 9 13 11 10 8 8 8 8 9 7 7 9 7 6 8 9 10 8 8 9 10 13 14 17 19 18 22 12 9 9 11 10 9 10 10
4 4 4 4 4 5 3 3 5 8 15 10 9 8 8 8 7 8 8 7 7 7 9 14 14 15 13 13 9 9 10 16 17 20 19 16 12 10 10 12 13 9 9 9
5 4 4 4 5 5 3 3 4 6 10 10 7 8 8 11 11 10 9 5 5 8 15 16 17 18 15 15 13 10 10 14 16 17 22 23 15 9 8 8 14 8 9 9
4 5 4 4 5 5 2 3 3 5 9 7 7 9 9 7 10 11 9 10 9 8 17 16 15 16 11 15 15 16 17 18 18 19 23 17 12 9 8 15 14 8 9 9
4 4 5 5 4 6 3 4 4 5 7 6 5 5 7 7 8 11 8 9 10 13 16 17 14 16 14 15 12 13 15 17 19 19 21 19 9 9 13 10 9 8 9 8
4 4 3 3 4 6 5 4 3 2 5 6 4 4 4 4 5 6 8 9 8 10 12 13 12 15 14 17 16 10 14 13 14 13 13 10 8 8 8 7 8 9 9 8
4 4 4 4 3 5 4 3 4 4 8 7 6 6 3 3 3 3 7 8 6 7 8 11 11 16 14 15 14 13 10 8 13 12 9 8 8 7 6 6 8 8 7 7
4 5 5 4 4 5 4 3 3 5 8 12 8 3 4 3 3 3 4 4 5 7 9 12 11 15 10 14 13 13 11 8 10 11 9 8 7 7 7 7 7 7 6 6
4 4 4 4 4 5 3 3 4 4 5 10 10 5 3 3 3 4 4 5 6 9 12 14 13 15 11 12 14 14 8 10 12 12 8 8 8 7 6 7 7 6 6 9
4 4 3 3 3 4 3 5 3 5 4 8 11 7 6 5 4 4 5 5 6 8 11 13 11 7 11 13 12 8 7 6 7 8 6 6 6 6 6 6 6 6 9 11
4 4 3 3 4 4 4 5 4 6 5 10 10 12 8 6 6 8 7 6 7 7 11 12 10 12 9 12 14 8 7 6 6 5 6 7 6 7 5 7 8 9 11 11
4 3 3 3 4 4 4 3 5 5 6 9 12 12 11 6 12 11 8 10 9 8 10 11 12 11 13 13 9 7 6 6 6 6 6 6 6 6 8 9 10 11 12 12
4 3 3 3 4 6 4 5 5 3 6 11 12 12 12 8 10 11 12 9 13 9 12 12 10 12 12 9 8 7 7 7 7 6 7 6 7 9 10 11 11 12 12 13
3 4 7 9 6 4 3 5 7 8 9 8 12 10 11 8 12 13 12 12 12 12 12 9 12 11 9 9 7 7 6 6 6 9 10 10 11 11 11 11 11 11 12 12
5 8 10 6 4 5 8 11 11 9 11 9 10 11 11 10 11 12 12 13 13 13 14 12 13 13 11 8 8 8 7 7 7 9 9 10 10 11 11 11 12 13 13 13
6 6 6 7 8 10 11 12 12 12 12 12 12 11 10 10 9 11 12 13 13 14 12 13 15 13 10 9 10 10 10 10 10 10 10 11 11 11 12 13 13 14 14 16
7 9 11 10 13 13 12 13 13 13 13 12 12 12 12 11 10 13 13 13 14 12 13 14 14 10 10 11 11 11 10 11 11 12 11 11 12 13 14 14 15 16 14 12
11 12 13 13 15 14 14 14 13 13 13 13 13 13 13 13 13 13 14 13 13 15 17 18 13 10 10 10 11 12 12 13 12 12 13 14 14 14 15 16 16 18 16 13
12 12 15 15 14 13 13 13 13 12 11 12 12 13 12 13 14 13 14 16 16 15 15 14 12 10 10 11 12 13 14 13 12 12 13 14 15 16 14 14 15 12 11 10
11 11 13 12 12 12 11 12 11 10 11 11 12 13 13 14 14 16 15 16 16 14 12 13 11 11 12 12 12 12 11 11 11 11 12 12 14 15 13 13 12 12 12 11
10 11 10 10 10 10 10 10 11 9 11 12 12 16 16 13 15 15 12 14 12 11 11 12 11 11 11 10 10 11 11 10 11 11 10 12 13 14 13 11 9 10 10 11